LAGEOS 1

Last updated on Wed Jun 24 2026 00:03:44 GMT+0000 (Coordinated Universal Time)

1 08820U 76039A 26173.47130547 .00000013 00000+0 00000+0 0 9995 2 08820 109.8024 181.1436 0044684 301.1340 225.1998 6.38664718913475
UTC large
Height (km)
Speed (km/s)
/
Latitude / Longitude
Inclination (degrees)
Orbital Period (minutes)
Azimuth
Elevation
Range (km)
Doppler Factor

Next 0 passes for location: London (51.5072 / 0.1276)

No passes found over London.
LAGEOS 1